TimeCST,TemperatureF,Dew PointF,Humidity,Sea Level PressureIn,VisibilityMPH,Wind Direction,Wind SpeedMPH,Gust SpeedMPH,PrecipitationIn,Events,Conditions,WindDirDegrees,DateUTC
12:53 AM,8.1,-2.9,61,30.66,10.0,Calm,Calm,-,N/A,,Overcast,0,2013-12-08 06:53:00
1:53 AM,9.0,-0.9,64,30.63,10.0,East,3.5,-,N/A,,Overcast,100,2013-12-08 07:53:00
2:53 AM,9.0,1.0,70,30.60,3.0,East,3.5,-,0.00,Snow,Light Snow,100,2013-12-08 08:53:00
3:53 AM,9.0,3.0,77,30.57,3.0,East,4.6,-,0.00,Snow,Light Snow,90,2013-12-08 09:53:00
4:53 AM,9.0,3.0,77,30.54,3.0,ENE,3.5,-,0.01,Snow,Light Snow,60,2013-12-08 10:53:00
5:41 AM,8.6,3.2,79,30.46,2.5,East,4.6,-,0.01,Snow,Light Snow,100,2013-12-08 11:41:00
5:53 AM,9.0,3.0,77,30.53,2.5,East,5.8,-,0.01,Snow,Light Snow,80,2013-12-08 11:53:00
6:29 AM,8.6,3.2,79,30.43,3.0,East,4.6,-,0.01,Snow,Light Snow,80,2013-12-08 12:29:00
6:53 AM,10.0,3.0,73,30.50,6.0,ENE,3.5,-,0.01,Snow,Light Snow,70,2013-12-08 12:53:00
7:53 AM,10.0,3.0,73,30.46,4.0,East,5.8,-,0.00,Snow,Light Snow,100,2013-12-08 13:53:00
8:20 AM,10.4,3.2,73,30.38,2.0,ESE,4.6,-,0.00,Snow,Light Snow,110,2013-12-08 14:20:00
8:53 AM,10.9,3.9,73,30.45,2.5,East,8.1,-,0.00,Snow,Light Snow,90,2013-12-08 14:53:00
9:16 AM,10.4,3.2,73,30.37,2.0,East,5.8,-,0.00,Snow,Light Snow,90,2013-12-08 15:16:00
9:24 AM,10.4,3.2,73,30.37,3.0,ENE,8.1,-,0.01,Snow,Light Snow,70,2013-12-08 15:24:00
9:53 AM,10.9,5.0,77,30.45,6.0,East,5.8,-,0.01,Snow,Light Snow,90,2013-12-08 15:53:00
10:51 AM,12.2,6.8,79,30.33,2.5,ENE,5.8,-,0.00,Snow,Light Snow,70,2013-12-08 16:51:00
10:53 AM,12.9,6.1,74,30.40,3.0,ENE,4.6,-,0.00,Snow,Light Snow,70,2013-12-08 16:53:00
10:59 AM,12.2,6.8,79,30.33,2.5,East,5.8,-,0.00,Snow,Light Snow,100,2013-12-08 16:59:00
11:08 AM,12.2,6.8,79,30.32,1.2,East,4.6,-,0.00,Snow,Light Snow,90,2013-12-08 17:08:00
11:53 AM,12.9,7.0,77,30.35,1.2,ENE,5.8,-,0.01,Snow,Light Snow,70,2013-12-08 17:53:00
12:53 PM,14.0,8.1,77,30.30,1.0,East,6.9,-,0.01,Snow,Light Snow,80,2013-12-08 18:53:00
1:25 PM,14.0,8.6,79,30.20,0.8,East,6.9,-,0.01,Snow,Light Snow,90,2013-12-08 19:25:00
1:35 PM,14.0,8.6,79,30.19,1.0,ENE,8.1,-,0.02,Snow,Light Snow,70,2013-12-08 19:35:00
1:45 PM,14.0,8.6,79,30.19,0.8,East,6.9,-,0.02,Snow,Light Snow,80,2013-12-08 19:45:00
1:53 PM,15.1,9.0,77,30.25,1.0,East,6.9,-,0.02,Snow,Light Snow,80,2013-12-08 19:53:00
2:53 PM,14.0,8.1,77,30.23,1.0,East,6.9,-,0.02,Snow,Light Snow,90,2013-12-08 20:53:00
3:53 PM,14.0,8.1,77,30.21,1.2,East,6.9,-,0.02,Snow,Light Snow,80,2013-12-08 21:53:00
4:51 PM,14.0,8.6,79,30.12,2.5,NE,3.5,-,0.01,Snow,Light Snow,40,2013-12-08 22:51:00
4:53 PM,14.0,8.1,77,30.19,2.5,NE,4.6,-,0.01,Snow,Light Snow,40,2013-12-08 22:53:00
5:15 PM,14.0,8.6,79,30.11,2.5,ENE,4.6,-,0.00,Snow,Light Snow,60,2013-12-08 23:15:00
5:22 PM,14.0,8.6,79,30.11,3.0,NE,3.5,-,0.00,Snow,Light Snow,50,2013-12-08 23:22:00
5:53 PM,14.0,8.1,77,30.17,5.0,NE,3.5,-,0.00,Snow,Light Snow,40,2013-12-08 23:53:00
6:53 PM,14.0,8.1,77,30.16,4.0,NE,3.5,-,0.00,Snow,Light Snow,40,2013-12-09 00:53:00
7:53 PM,14.0,8.1,77,30.14,4.0,Calm,Calm,-,0.00,Snow,Light Snow,0,2013-12-09 01:53:00
8:53 PM,14.0,9.0,80,30.12,4.0,North,3.5,-,0.01,Snow,Light Snow,350,2013-12-09 02:53:00
9:35 PM,14.0,8.6,79,30.04,3.0,NNW,5.8,-,0.00,Snow,Light Snow,340,2013-12-09 03:35:00
9:53 PM,12.9,9.0,84,30.11,3.0,North,3.5,-,0.01,Snow,Light Snow,360,2013-12-09 03:53:00
10:53 PM,12.9,9.0,84,30.10,3.0,North,3.5,-,0.00,Snow,Light Snow,360,2013-12-09 04:53:00
11:53 PM,12.0,8.1,84,30.07,4.0,NNW,5.8,-,0.01,Snow,Light Snow,330,2013-12-09 05:53:00